This is the latest recevied weather packets stored in our database for station/object VK4RM-13. If no packets are shown the sender has not sent any weather packets the latest 10 day(s).
| Time | Temp. | Humidity | Pressure | Rain* | Wind** | Luminosity | Snow |
|---|---|---|---|---|---|---|---|
| 1777861001 | 26.67° C | 70% | 995.2 hPa | 0 mm | - | - | - |
| 1777860401 | 26.11° C | 69% | 995.4 hPa | 0 mm | - | - | - |
| 1777859202 | 26.11° C | 69% | 995.8 hPa | 0 mm | - | - | - |
| 1777858602 | 26.67° C | 69% | 996.1 hPa | 0 mm | - | - | - |
| 1777858002 | 26.11° C | 72% | 996.2 hPa | 0 mm | - | - | - |
| 1777857402 | 26.11° C | 70% | 996.3 hPa | 0 mm | - | - | - |
| 1777856802 | 26.11° C | 72% | 996.4 hPa | 0 mm | - | - | - |
| 1777856202 | 26.11° C | 70% | 996.5 hPa | 0 mm | - | - | - |
| 1777855602 | 26.11° C | 71% | 996.7 hPa | 0 mm | - | - | - |
| 1777855002 | 26.11° C | 72% | 996.8 hPa | 0 mm | - | - | - |
| 1777854402 | 26.11° C | 71% | 996.8 hPa | 0 mm | - | - | - |
| 1777853802 | 26.11° C | 72% | 996.8 hPa | 0 mm | - | - | - |
| 1777853202 | 25.56° C | 75% | 996.9 hPa | 0 mm | - | - | - |
| 1777852602 | 25° C | 76% | 996.9 hPa | 0 mm | - | - | - |
| 1777852002 | 24.44° C | 77% | 997 hPa | 0 mm | - | - | - |
| 1777851402 | 24.44° C | 77% | 997 hPa | 0 mm | - | - | - |
| 1777850802 | 23.89° C | 79% | 997 hPa | 0 mm | - | - | - |
| 1777850202 | 23.89° C | 79% | 996.9 hPa | 0 mm | - | - | - |
| 1777849602 | 23.33° C | 80% | 996.8 hPa | 0 mm | - | - | - |
| 1777849002 | 23.33° C | 80% | 996.8 hPa | 0 mm | - | - | - |
| 1777848402 | 23.33° C | 81% | 996.8 hPa | 0 mm | - | - | - |
| 1777847802 | 22.78° C | 83% | 996.7 hPa | 0 mm | - | - | - |
| 1777847202 | 22.22° C | 83% | 996.8 hPa | 0 mm | - | - | - |
| 1777846602 | 21.67° C | 85% | 996.7 hPa | 0 mm | - | - | - |
| 1777846002 | 21.67° C | 88% | 996.7 hPa | 0 mm | - | - | - |
* Rain latest hour (hover to see other rain measurements)
** Current wind speed in m/s (hover to see current wind gust speed)